Other Surface Observations
Issued by NWS Upton, NY

Home | Current Version | Previous Version | Text Only | Print | Product List | Glossary On
Versions: 1 2 3 4 5 6 7 8 9 10 11 12 13 14 15 16 17 18 19 20 21 22 23 24 25 26 27 28 29 30 31 32 33 34 35 36 37 38 39 40 41 42 43 44 45 46 47 48 49 50
000
SXUS51 KOKX 180157
OSOOKX
New York City Metropolitan Area Weather Roundup
National Weather Service New York NY
900 PM EST SAT FEB 17 2018

CITY           SKY/WX    TMP DP  RH WIND       PRES   REMARKS
Central Park   LGT SNOW  33  32  96 VRB3      30.13F VSB 3/4
LaGuardia Arpt SNOW      33  31  92 NE7       30.12F VSB 1/2 WCI  27
Kennedy Intl   LGT SNOW  32  32 100 NE8       30.13F VSB 3/4 WCI  25
Newark Liberty LGT SNOW  33  31  92 NE7       30.11F VSB 3/4 WCI  27
Teterboro Arpt SNOW      33  32  96 E3        30.11F VSB 1/2
Bronx Bot Gard   N/A     32  32 100 CALM      30.15F
Bronx Lehman C   N/A     32  32 100 E5          N/A  WCI  27
Queens College   N/A     32  32 100 NE3         N/A
Breezy Point     N/A     32 N/A N/A NE8         N/A  WCI  25
Brooklyn Coll    N/A     34  32  93 NE5         N/A  WCI  30
Staten Island    N/A     32  32 100 NE3         N/A

>>>>>>>>>>>>>>>>>>>>>>>>>>>>>>>>> KEY <<<<<<<<<<<<<<<<<<<<<<<<<<<<<<<
> SKY/WX - Sky Condition/Present    : R : WCI - Wind Chill Index    <
>          Weather                  : E : VSB - Visibility in Miles <
> TMP    - Temperature in Deg F     : M : HX  - Heat Index          <
> DP     - Dew Point Temperature    : A : TC  - Temperature in      <
> RH     - Relative Humidity        : R :       Celsius             <
> WIND   - Direction/Speed (mph)    : K : VRB - Variable Wind Dir   <
> PRES   - Pressure (in Hg)         : S :                           <
>>>>>>>>>>>>>>>>>>>>>>>>>>>>>>>>> KEY <<<<<<<<<<<<<<<<<<<<<<<<<<<<<<<




USA.gov is the U.S. government's official web portal to all federal, state and local government web resources and services.